EW5417 Weather Reports


time (UTC)temp
C
wind
direction
speed
KPH
gust
KPH
rain 1hr
cm
rain 24hr
cm
rain mn
cm
humidity
%
barometer
mb
20260504234525 23 147 6.4 11.3 0.00 0.00 0.00 39 1025.4
20260504233629 23 156 9.7 12.9 0.00 0.00 0.00 39 1024.4
20260504232708 23 154 9.7 16.1 0.00 0.00 0.00 39 1024.4
20260504231829 23 151 6.4 9.7 0.00 0.00 0.00 39 1024.4
20260504230908 23 135 3.2 4.8 0.00 0.00 0.00 39 1024.4
20260504230008 24 135 1.6 6.4 0.00 0.00 0.00 39 1024.4
20260504225408 24 135 3.2 4.8 0.00 0.00 0.00 39 1024.4
20260504224508 24 133 3.2 6.4 0.00 0.00 0.00 39 1024.4
20260504223608 24 121 1.6 6.4 0.00 0.00 0.00 38 1024.4
20260504222730 24 135 1.6 3.2 0.00 0.00 0.00 38 1024.4
20260504221808 24 125 3.2 6.4 0.00 0.00 0.00 38 1024.4
20260504220908 25 112 1.6 4.8 0.00 0.00 0.00 38 1024.4
20260504220008 25 112 3.2 3.2 0.00 0.00 0.00 38 1024.4
20260504215428 25 112 0.0 3.2 0.00 0.00 0.00 38 1024.4
20260504214508 25 112 1.6 3.2 0.00 0.00 0.00 37 1024.4
20260504213608 25 138 3.2 4.8 0.00 0.00 0.00 37 1024.4
20260504212708 25 180 0.0 3.2 0.00 0.00 0.00 37 1024.4
20260504211829 25 0 0.0 0.0 0.00 0.00 0.00 37 1024.4
20260504210929 25 0 0.0 0.0 0.00 0.00 0.00 37 1024.4
20260504210008 25 0 0.0 0.0 0.00 0.00 0.00 37 1023.3
20260504205408 25 0 0.0 0.0 0.00 0.00 0.00 37 1023.3
20260504204508 25 0 0.0 0.0 0.00 0.00 0.00 36 1023.3
20260504203607 25 0 0.0 0.0 0.00 0.00 0.00 36 1023.3
20260504202708 25 180 0.0 1.6 0.00 0.00 0.00 36 1023.3
20260504201807 26 0 0.0 0.0 0.00 0.00 0.00 36 1023.3
20260504200929 26 300 0.0 1.6 0.00 0.00 0.00 36 1023.3
20260504200007 26 339 0.0 4.8 0.00 0.00 0.00 36 1023.3
20260504195407 26 356 1.6 4.8 0.00 0.00 0.00 36 1023.3
20260504194507 26 214 0.0 4.8 0.00 0.00 0.00 36 1024.4
20260504193629 26 353 1.6 4.8 0.00 0.00 0.00 36 1023.3
20260504192707 26 345 0.0 4.8 0.00 0.00 0.00 35 1023.3
20260504191808 26 321 0.0 4.8 0.00 0.00 0.00 35 1024.4
20260504190907 26 355 3.2 6.4 0.00 0.00 0.00 35 1024.4
20260504190007 26 359 1.6 4.8 0.00 0.00 0.00 35 1024.4
20260504185428 26 349 1.6 4.8 0.00 0.00 0.00 35 1024.4
20260504184507 26 332 0.0 9.7 0.00 0.00 0.00 35 1023.3
20260504183607 26 333 6.4 9.7 0.00 0.00 0.00 35 1024.4
20260504182707 26 332 1.6 11.3 0.00 0.00 0.00 35 1024.4
20260504181807 27 336 0.0 9.7 0.00 0.00 0.00 34 1024.4
20260504180928 27 342 4.8 9.7 0.00 0.00 0.00 34 1024.4
20260504180007 27 342 4.8 9.7 0.00 0.00 0.00 34 1024.4
20260504175407 27 346 4.8 9.7 0.00 0.00 0.00 34 1024.4
20260504174507 27 9 1.6 9.7 0.00 0.00 0.00 34 1024.4
20260504173607 27 354 6.4 9.7 0.00 0.00 0.00 34 1024.4
20260504172707 27 3 4.8 12.9 0.00 0.00 0.00 34 1024.4
20260504171828 27 357 4.8 9.7 0.00 0.00 0.00 34 1024.4
20260504170907 27 331 6.4 12.9 0.00 0.00 0.00 35 1024.4
20260504150906 28 346 6.4 14.5 0.00 0.00 0.00 35 1025.4
20260504140906 26 2 3.2 9.7 0.00 0.00 0.00 39 1026.5